This is the latest recevied weather packets stored in our database for station/object K1BWE-1. If no packets are shown the sender has not sent any weather packets the latest 10 day(s).
| Time | Temp. | Humidity | Pressure | Rain* | Wind** | Luminosity | Snow |
|---|---|---|---|---|---|---|---|
| 1777672324 | 27.78° C | 21% | 1012.9 hPa | 0 mm | - | 583 W/m² | - |
| 1777672019 | 27.78° C | 21% | 1012.8 hPa | 0 mm | - | 596 W/m² | - |
| 1777671412 | 27.78° C | 23% | 1012.8 hPa | 0 mm | - | 629 W/m² | - |
| 1777671108 | 28.89° C | 22% | 1012.9 hPa | 0 mm | - | 669 W/m² | - |
| 1777670501 | 27.78° C | 23% | 1013.1 hPa | 0 mm | - | 714 W/m² | - |
| 1777670198 | 27.78° C | 22% | 1013.3 hPa | 0 mm | - | 703 W/m² | - |
| 1777669896 | 27.78° C | 25% | 1013.2 hPa | 0 mm | - | 700 W/m² | - |
| 1777669592 | 27.22° C | 26% | 1013.3 hPa | 0 mm | - | 714 W/m² | - |
| 1777669289 | 27.78° C | 23% | 1013.3 hPa | 0 mm | - | 726 W/m² | - |
| 1777668985 | 27.22° C | 23% | 1013.3 hPa | 0 mm | - | 715 W/m² | - |
| 1777668683 | 27.78° C | 23% | 1013.1 hPa | 0 mm | - | 653 W/m² | - |
| 1777667772 | 27.22° C | 26% | 1013.3 hPa | 0 mm | - | 732 W/m² | - |
| 1777667470 | 27.22° C | 24% | 1013.8 hPa | 0 mm | - | 756 W/m² | - |
| 1777666560 | 27.22° C | 25% | 1013.7 hPa | 0 mm | - | 773 W/m² | - |
| 1777666256 | 27.22° C | 30% | 1013.9 hPa | 0 mm | - | 748 W/m² | - |
| 1777665954 | 26.67° C | 27% | 1013.8 hPa | 0 mm | - | 737 W/m² | - |
| 1777665651 | 26.11° C | 25% | 1013.9 hPa | 0 mm | - | 751 W/m² | - |
| 1777665349 | 26.11° C | 26% | 1013.8 hPa | 0 mm | - | 757 W/m² | - |
| 1777665044 | 26.67° C | 31% | 1013.7 hPa | 0 mm | - | 764 W/m² | - |
| 1777664436 | 26.11° C | 29% | 1014.1 hPa | 0 mm | - | 702 W/m² | - |
| 1777664133 | 26.11° C | 27% | 1014 hPa | 0 mm | - | 739 W/m² | - |
| 1777663832 | 26.11° C | 26% | 1014.3 hPa | 0 mm | - | 735 W/m² | - |
| 1777663226 | 25.56° C | 28% | 1014.3 hPa | 0 mm | - | 770 W/m² | - |
| 1777660491 | 25° C | 30% | 1015 hPa | 0 mm | - | 736 W/m² | - |
| 1777660183 | 24.44° C | 31% | 1014.9 hPa | 0 mm | - | 714 W/m² | - |
* Rain latest hour (hover to see other rain measurements)
** Current wind speed in m/s (hover to see current wind gust speed)